Home > Weather > Bambari > Past weeks

Flag for Central African Republic Past Weather in Bambari, Central African Republic — Yesterday and Last 2 Weeks

Now
77 °F

Passing clouds.


Feels Like: 78 °F
Forecast: 72 / 87 °F
Wind: 9 mph from Southwest

Location: Bangui Airport

Current Time: May 27, 2016 at 7:39:30 AM

Latest Report: May 27, 2016 at 7:00 AM


Visibility: N/A

Pressure: 29.95 "Hg

Humidity: 89%

Dew Point: 73 °F

Location of BambariLocation

Past Weather in Bambari — Graph

°F

Bambari Temperature Yesterday

Maximum temperature yesterday: 95 °F (at 2:00 PM)
Minimum temperature yesterday: 72 °F (at 4:00 AM)
Average temperature yesterday: 82 °F

High & Low Weather Summary for the Past Weeks

 TemperatureHumidityPressure
High97 °F (May 12, 4:00 PM)100% (May 12, 6:00 AM)30.12 "Hg (May 12, 6:00 AM)
Low70 °F (May 19, 10:00 PM)42% (May 12, 4:00 PM)29.74 "Hg (May 12, 4:00 PM)
Average80 °F83%29.91 "Hg
* Reported May 12 6:00 AM — May 27 6:00 AM, Bambari, Weather by CustomWeather, © 2016

Note: Actual official high and low records may vary slightly from our data, if they occured in-between our weather recording intervals... More about our weather records

Advertising

Bambari Weather History for the Previous 24 Hours

Scroll right to see more
 ConditionsComfort  
Time TempWeatherWind HumidityBarometerVisibility
6:00 AM
Fri, May 27
75 °FPassing clouds.6 mph94%29.92 "HgN/A
5:00 AM75 °FClear.1 mph100%29.89 "Hg4 mi
4:00 AM75 °FClear.1 mph100%29.86 "Hg10 mi
3:00 AM75 °FClear.1 mph100%29.86 "Hg10 mi
2:00 AM77 °FClear.No wind94%29.86 "Hg10 mi
1:00 AM77 °FClear.1 mph100%29.89 "Hg10 mi
12:00 AM77 °FClear.No wind100%29.89 "Hg10 mi
11:00 PM
Thu, May 26
79 °FClear.No wind94%29.89 "Hg5 mi
10:00 PM81 °FClear.No wind89%29.92 "Hg5 mi
9:00 PM81 °FPassing clouds.No wind94%29.89 "HgN/A
8:00 PM82 °FPassing clouds.No wind84%29.86 "HgN/A
7:00 PM82 °FPassing clouds.No wind89%29.83 "HgN/A
6:00 PM86 °FPassing clouds.No wind70%29.83 "HgN/A
5:00 PM91 °FPassing clouds.1 mph56%29.80 "HgN/A
4:00 PM93 °FPassing clouds.2 mph53%29.80 "HgN/A
3:00 PM91 °FPassing clouds.5 mph52%29.83 "HgN/A
2:00 PM95 °FPassing clouds.No wind50%29.83 "HgN/A
1:00 PM91 °FPassing clouds.2 mph52%29.86 "HgN/A
12:00 PM91 °FPassing clouds.2 mph52%29.89 "HgN/A
11:00 AM90 °FPassing clouds.1 mph59%29.92 "HgN/A
10:00 AM86 °FPassing clouds.1 mph70%29.95 "HgN/A
9:00 AM81 °FPassing clouds.1 mph79%29.95 "HgN/A
7:00 AM72 °FFog.No wind100%29.95 "Hg1 mi
Weather by CustomWeather, © 2016

See weather overviewHow to use our weather pages